Location: *
(45.5667°S, 177.5167°W)
Time: 22:42:29
(UTC+00:00)

Cosmos 2360 Rocket - Pass Details

Date: 29 May 2022
Orbit: 832 x 846 km, 71.0° (Epoch: 24 June)

Event Time Altitude Azimuth Distance (km) Brightness Sun altitude
Rises 05:01:40 0° 197° (SSW) 3,425 5.3 -7.7°
Reaches altitude 10° 05:06:32 10° 160° (SSE) 2,480 4.3 -8.5°
Maximum altitude 05:07:56 11° 146° (SE) 2,418 4.1 -8.7°
Drops below altitude 10° 05:09:19 10° 132° (SE) 2,474 4.0 -8.9°
Enters shadow 05:09:36 10° 129° (SE) 2,501 4.0 -9.0°
